Location: Lane
(33.5226°N, 79.8788°W)
Time: 20:47:22
(UTC+00:00)

Courier 1B Rocket - Pass Details

Date: 08 October 2022
Orbit: 920 x 1202 km, 28.3° (Epoch: 01 December)

Event Time Altitude Azimuth Distance (km) Brightness Sun altitude
Rises 04:08:12 0° 264° (W) 3,630 - -59.1°
Reaches altitude 10° 04:12:02 10° 242° (WSW) 2,642 - -59.5°
Maximum altitude 04:15:32 15° 208° (SSW) 2,249 - -59.9°
Drops below altitude 10° 04:19:00 10° 174° (S) 2,599 - -60.2°
Sets 04:22:45 0° 152° (SSE) 3,538 - -60.5°
